FENGYUN 1C DEB, 35194

Orbit data source: Space-Track

FENGYUN 1C DEB, 35194 is space debris in SSO originally from a launch on Mon, 10 May 1999 UTC launched from the Taiyaun Space Center, China (TSC). Fengyun 1C debris stems from the Chinese weather satellite Fengyun-1C, which was intentionally destroyed by a Chinese anti-satellite missile in 2007. This event dramatically increased the amount of space debris, with thousands of trackable fragments posing hazards to satellites and human spaceflight. The Fengyun 1C debris cloud has become a focal point in discussions about space sustainability and the need for international regulations to prevent the creation of new debris.

Loading next visibility...
Identifier
35194, 1999-025DPA
Orbit
SSO
Country
Flag of CNCN / PRC
Related business
Manufacturer
Unknown
Mission
Spacecraft
Bus & Motor
Unknown
Mass
Unknown
Launch date (UTC)
1999-05-10 (27 years ago)
Launch vehicle
Unknown
Launch site
Taiyaun Space Center, China (TSC)
Object type
Payload
Rocket body
Debris
Shape & HBR
Unknown shape, 0.1 m
Radar Cross Section
Small (<0.1 m²)

Expand to show TLE details & history
Last TLE update: 5 days ago

TLE from 5 days ago
0 FENGYUN 1C DEB
1 35194U 99025DPA 26173.52526531  .00003242  00000-0  60255-3 0  9997
2 35194  98.9436 277.2776 0110568 208.3030 151.2134 14.62074758681914
Epoch: 2026-06-22T12:36Z
TLE epoch observation values (Epoch: 2026-06-22T12:36:22.922Z)
Latitude
-0.00004°
Longitude
177.47217°
Altitude
758.117 km
Speed
7.439 km/s
True Right ascension
18h 29m 06s
True Declination
0° 00' 00"
Sunlit
Object was in full shadow at epoch
Visualization orbit readout
Latitude
Unknown
Longitude
Unknown
Altitude
Unknown
Speed
Unknown
Apparent Right ascension
Unknown
Apparent Declination
Unknown
Sunlit
N/A
Visualization observer readout
Local Sidereal Time
08:03:12
Azimuth
Unknown
Elevation
Unknown
Doppler factor
Unknown
Orbital elements
Apogee altitude
761.677 km
Perigee altitude
605.516 km
Semi-major axis
7,061.733 km
Eccentricity
0.01106
Inclination
98.9436°
RAAN
277.2776°
Arg. of periapsis
208.303°
True anomaly
151.81621°
Mean anomaly
151.2134°
Eccentric anomaly
151.51553°
Mean motion
3.65743 °/min
Orbital period
98.43 mins
BSTAR
0.00060255
Loading maneuver chart data...
Computing Atmospheric mass density...

Documentation

Showing up to 5 results
|